^^
Saratoga-Weather Station Historical Data
Daily Summary for January 19, 2021 Units:  Metric    English   Both
Daily Weekly Monthly Yearly Custom
  High: Low: Average:
Temperature: 21.3 °C 17 °C 18.8 °C
Dew Point: 16.7 °C 15.2 °C 15.8 °C
Humidity: 89% 75% 83%
Wind Speed: 7.9km/h 0km/h 1km/h
Wind Gust: 9.7km/h - -
Wind- - SSW
Pressure: 1019.3 hPa 1019.0 hPa -
Precipitation: 0.0 mm    
Historical Graphs
 
 
Tabular Data for January 19, 2021
Time Temperature Dew Point Pressure Wind Wind Speed Wind Gust Humidity Rainfall Rate (Hourly) solar
00:00 21.3 °C 16.7 °C 1019.3 hPa ESE 1.4 km/h 6.4 km/h 75% 0.0 mm 0 W/m2
00:05 21.1 °C 16.5 °C 1019.3 hPa SE 1.4 km/h 1.6 km/h 75% 0.0 mm 0 W/m2
00:10 20.9 °C 16.5 °C 1019.3 hPa SE 1.4 km/h 1.6 km/h 76% 0.0 mm 0 W/m2
00:15 20.8 °C 16.4 °C 1019.3 hPa Calm     76% 0.0 mm 0 W/m2
00:20 20.7 °C 16.5 °C 1019.3 hPa SE 1.4 km/h 3.2 km/h 77% 0.0 mm 0 W/m2
00:25 20.5 °C 16.3 °C 1019.3 hPa Calm   3.2 km/h 77% 0.0 mm 0 W/m2
00:30 20.3 °C 16.3 °C 1019.3 hPa Calm   1.6 km/h 78% 0.0 mm 0 W/m2
00:35 20.2 °C 16.4 °C 1019.3 hPa East 4.7 km/h 6.4 km/h 79% 0.0 mm 0 W/m2
00:40 20.2 °C 16.4 °C 1019.3 hPa East 1.4 km/h 3.2 km/h 79% 0.0 mm 0 W/m2
00:45 20.1 °C 16.3 °C 1019.3 hPa Calm   6.4 km/h 79% 0.0 mm 0 W/m2
00:50 20 °C 16.4 °C 1019.3 hPa East 1.4 km/h 1.6 km/h 80% 0.0 mm 0 W/m2
00:55 19.9 °C 16.3 °C 1019.3 hPa Calm   3.2 km/h 80% 0.0 mm 0 W/m2
01:00 19.8 °C 16.2 °C 1019.3 hPa SSW 1.4 km/h 3.2 km/h 80% 0.0 mm 0 W/m2
01:05 19.7 °C 16.3 °C 1019.3 hPa SW 1.4 km/h 4.8 km/h 81% 0.0 mm 0 W/m2
01:11 19.8 °C 16.4 °C 1019.3 hPa Calm   1.6 km/h 81% 0.0 mm 0 W/m2
01:16 19.8 °C 16.4 °C 1019.3 hPa SW 1.4 km/h 3.2 km/h 81% 0.0 mm 0 W/m2
01:21 19.8 °C 16.4 °C 1019.3 hPa Calm   1.6 km/h 81% 0.0 mm 0 W/m2
01:26 19.8 °C 16.2 °C 1019.3 hPa WNW 1.4 km/h 3.2 km/h 80% 0.0 mm 0 W/m2
01:31 19.9 °C 16.3 °C 1019.0 hPa Calm   8 km/h 80% 0.0 mm 0 W/m2
01:36 20.1 °C 16.3 °C 1019.0 hPa SSW 1.4 km/h 3.2 km/h 79% 0.0 mm 0 W/m2
01:41 20.1 °C 16.3 °C 1019.3 hPa South 1.4 km/h 8 km/h 79% 0.0 mm 0 W/m2
01:46 20.1 °C 16.3 °C 1019.3 hPa Calm   4.8 km/h 79% 0.0 mm 0 W/m2
01:51 20.1 °C 16.3 °C 1019.3 hPa SE 7.9 km/h 8 km/h 79% 0.0 mm 0 W/m2
01:56 20.1 °C 16.3 °C 1019.3 hPa SSE 1.4 km/h 1.6 km/h 79% 0.0 mm 0 W/m2
02:01 19.9 °C 16.1 °C 1019.0 hPa Calm   1.6 km/h 79% 0.0 mm 0 W/m2
02:06 19.9 °C 16.3 °C 1019.0 hPa Calm   1.6 km/h 80% 0.0 mm 0 W/m2
02:11 19.9 °C 16.3 °C 1019.3 hPa SE 1.4 km/h 1.6 km/h 80% 0.0 mm 0 W/m2
02:16 19.8 °C 16.2 °C 1019.3 hPa Calm   3.2 km/h 80% 0.0 mm 0 W/m2
02:21 19.7 °C 16.2 °C 1019.0 hPa Calm   3.2 km/h 80% 0.0 mm 0 W/m2
02:26 19.7 °C 16.3 °C 1019.0 hPa NE 1.4 km/h 4.8 km/h 81% 0.0 mm 0 W/m2
02:31 19.7 °C 16.2 °C 1019.0 hPa Calm   4.8 km/h 80% 0.0 mm 0 W/m2
02:36 19.7 °C 16.2 °C 1019.0 hPa Calm   1.6 km/h 80% 0.0 mm 0 W/m2
02:41 19.8 °C 16.2 °C 1019.0 hPa Calm   3.2 km/h 80% 0.0 mm 0 W/m2
02:46 19.7 °C 16.2 °C 1019.0 hPa Calm   1.6 km/h 80% 0.0 mm 0 W/m2
02:51 19.7 °C 16.2 °C 1019.0 hPa East 1.4 km/h 3.2 km/h 80% 0.0 mm 0 W/m2
02:56 19.7 °C 16.2 °C 1019.0 hPa Calm   1.6 km/h 80% 0.0 mm 0 W/m2
03:01 19.5 °C 16.2 °C 1019.0 hPa South 3.2 km/h 3.2 km/h 81% 0.0 mm 0 W/m2
03:06 19.4 °C 16.1 °C 1019.0 hPa Calm   1.6 km/h 81% 0.0 mm 0 W/m2
03:11 19.3 °C 16 °C 1019.0 hPa Calm   1.6 km/h 81% 0.0 mm 0 W/m2
03:16 19.2 °C 15.9 °C 1019.0 hPa Calm   1.6 km/h 81% 0.0 mm 0 W/m2
03:21 19.2 °C 16.1 °C 1019.0 hPa North 1.4 km/h 4.8 km/h 82% 0.0 mm 0 W/m2
03:26 19.2 °C 16.1 °C 1019.0 hPa North 6.4 km/h 6.4 km/h 82% 0.0 mm 0 W/m2
03:31 19.2 °C 16.1 °C 1019.0 hPa NW 1.4 km/h 1.6 km/h 82% 0.0 mm 0 W/m2
03:36 19.1 °C 16 °C 1019.0 hPa Calm     82% 0.0 mm 0 W/m2
03:41 18.9 °C 15.9 °C 1019.0 hPa Calm   4.8 km/h 83% 0.0 mm 0 W/m2
03:46 18.9 °C 15.9 °C 1019.0 hPa Calm   6.4 km/h 83% 0.0 mm 0 W/m2
03:51 18.9 °C 15.9 °C 1019.0 hPa WNW 1.4 km/h 9.7 km/h 83% 0.0 mm 0 W/m2
03:56 18.9 °C 15.9 °C 1019.0 hPa Calm   3.2 km/h 83% 0.0 mm 0 W/m2
04:01 18.9 °C 15.9 °C 1019.0 hPa East 1.4 km/h 4.8 km/h 83% 0.0 mm 0 W/m2
04:06 18.8 °C 15.9 °C 1019.0 hPa NW 3.2 km/h 4.8 km/h 83% 0.0 mm 0 W/m2
04:11 18.8 °C 15.9 °C 1019.0 hPa West 1.4 km/h 1.6 km/h 83% 0.0 mm 0 W/m2
04:16 18.7 °C 15.8 °C 1019.0 hPa SW 1.4 km/h 4.8 km/h 83% 0.0 mm 0 W/m2
04:21 18.6 °C 15.7 °C 1019.0 hPa Calm   3.2 km/h 83% 0.0 mm 0 W/m2
04:26 18.6 °C 15.7 °C 1019.0 hPa Calm   3.2 km/h 83% 0.0 mm 0 W/m2
04:31 18.5 °C 15.7 °C 1019.0 hPa Calm   3.2 km/h 84% 0.0 mm 0 W/m2
04:36 18.4 °C 15.6 °C 1019.0 hPa West 1.4 km/h 4.8 km/h 84% 0.0 mm 0 W/m2
04:41 18.4 °C 15.6 °C 1019.0 hPa Calm   1.6 km/h 84% 0.0 mm 0 W/m2
04:46 18.3 °C 15.5 °C 1019.0 hPa WSW 1.4 km/h 4.8 km/h 84% 0.0 mm 0 W/m2
04:51 18.2 °C 15.6 °C 1019.0 hPa NW 1.4 km/h 1.6 km/h 85% 0.0 mm 0 W/m2
04:56 18.2 °C 15.6 °C 1019.0 hPa West 1.4 km/h 3.2 km/h 85% 0.0 mm 0 W/m2
05:01 18.1 °C 15.5 °C 1019.0 hPa Calm   1.6 km/h 85% 0.0 mm 0 W/m2
05:06 17.9 °C 15.3 °C 1019.0 hPa NW 1.4 km/h 3.2 km/h 85% 0.0 mm 0 W/m2
05:11 17.8 °C 15.4 °C 1019.0 hPa Calm   1.6 km/h 86% 0.0 mm 0 W/m2
05:16 17.7 °C 15.3 °C 1019.0 hPa Calm   3.2 km/h 86% 0.0 mm 0 W/m2
05:21 17.7 °C 15.3 °C 1019.0 hPa Calm     86% 0.0 mm 0 W/m2
05:26 17.6 °C 15.4 °C 1019.0 hPa Calm   3.2 km/h 87% 0.0 mm 0 W/m2
05:31 17.4 °C 15.2 °C 1019.0 hPa Calm   1.6 km/h 87% 0.0 mm 0 W/m2
05:36 17.4 °C 15.4 °C 1019.0 hPa Calm   1.6 km/h 88% 0.0 mm 0 W/m2
05:41 17.3 °C 15.3 °C 1019.0 hPa Calm     88% 0.0 mm 0 W/m2
05:46 17.3 °C 15.3 °C 1019.0 hPa Calm   1.6 km/h 88% 0.0 mm 0 W/m2
05:51 17.3 °C 15.3 °C 1019.0 hPa Calm   1.6 km/h 88% 0.0 mm 0 W/m2
05:56 17.3 °C 15.3 °C 1019.0 hPa East 1.4 km/h 1.6 km/h 88% 0.0 mm 5 W/m2
06:01 17.2 °C 15.2 °C 1019.0 hPa Calm   3.2 km/h 88% 0.0 mm 9 W/m2
06:06 17.2 °C 15.4 °C 1019.0 hPa Calm   3.2 km/h 89% 0.0 mm 11 W/m2
06:12 17.1 °C 15.3 °C 1019.0 hPa Calm     89% 0.0 mm 12 W/m2
06:17 17.1 °C 15.3 °C 1019.0 hPa Calm     89% 0.0 mm 16 W/m2
06:22 17 °C 15.2 °C 1019.0 hPa Calm     89% 0.0 mm 18 W/m2
06:27 17.1 °C 15.3 °C 1019.0 hPa SSE 1.4 km/h 1.6 km/h 89% 0.0 mm 21 W/m2
06:32 17.1 °C 15.3 °C 1019.0 hPa NW 3.2 km/h 3.2 km/h 89% 0.0 mm 23 W/m2
06:37 17.1 °C 15.3 °C 1019.0 hPa Calm     89% 0.0 mm 25 W/m2
06:42 17.1 °C 15.3 °C 1019.0 hPa Calm   3.2 km/h 89% 0.0 mm 26 W/m2
06:47 17.2 °C 15.4 °C 1019.0 hPa Calm   3.2 km/h 89% 0.0 mm 30 W/m2
06:52 17.3 °C 15.5 °C 1019.0 hPa South 1.4 km/h 1.6 km/h 89% 0.0 mm 32 W/m2
06:57 17.4 °C 15.4 °C 1019.0 hPa Calm   3.2 km/h 88% 0.0 mm 35 W/m2
07:02 17.4 °C 15.4 °C 1019.0 hPa Calm     88% 0.0 mm 37 W/m2
07:07 17.4 °C 15.4 °C 1019.0 hPa South 1.4 km/h 1.6 km/h 88% 0.0 mm 39 W/m2
07:12 17.5 °C 15.3 °C 1019.0 hPa Calm   1.6 km/h 87% 0.0 mm 40 W/m2
07:17 17.6 °C 15.4 °C 1019.0 hPa Calm     87% 0.0 mm 42 W/m2
07:22 17.7 °C 15.3 °C 1019.0 hPa NW 3.2 km/h 3.2 km/h 86% 0.0 mm 44 W/m2
07:27 17.8 °C 15.4 °C 1019.0 hPa Calm     86% 0.0 mm 47 W/m2
07:32 17.9 °C 15.5 °C 1019.0 hPa West 1.4 km/h 1.6 km/h 86% 0.0 mm 49 W/m2
07:37 18 °C 15.4 °C 1019.0 hPa East 3.2 km/h 4.8 km/h 85% 0.0 mm 51 W/m2
07:42 18.1 °C 15.5 °C 1019.0 hPa ESE 4.7 km/h 6.4 km/h 85% 0.0 mm 53 W/m2
07:47 18.2 °C 15.5 °C 1019.0 hPa WNW 1.4 km/h 3.2 km/h 84% 0.0 mm 54 W/m2
07:52 18.3 °C 15.5 °C 1019.0 hPa NW 4.8 km/h 4.8 km/h 84% 0.0 mm 62 W/m2
07:57 18.4 °C 15.6 °C 1019.0 hPa NW 1.4 km/h 4.8 km/h 84% 0.0 mm 98 W/m2
08:02 18.7 °C 15.8 °C 1019.0 hPa WNW 1.4 km/h 4.8 km/h 83% 0.0 mm 183 W/m2
08:07 18.8 °C 15.7 °C 1019.0 hPa North 3.2 km/h 4.8 km/h 82% 0.0 mm 104 W/m2
08:12 19 °C 15.9 °C 1019.0 hPa Calm   3.2 km/h 82% 0.0 mm 70 W/m2
08:17 19.2 °C 15.9 °C 1019.0 hPa Calm   8 km/h 81% 0.0 mm 67 W/m2
Juneau County Weather
Compliments of Weather Underground - 2 mb